SCP
0 1 1 1 1 1 1 1 1 1 1 1 2 2 3 3 3 3 2 2 2 2 2 2 2 2 2 2 1 1 1 1 1 1 1 0 0 0 0 0 0 0 0
0 1 1 1 1 1 1 1 1 1 1 1 1 2 2 3 3 3 3 2 2 2 2 2 2 2 2 2 1 1 1 1 1 1 1 1 1 0 0 0 0 0 0
0 0 0 1 1 1 1 1 1 0 1 1 1 2 2 3 3 3 3 2 2 2 2 2 2 2 1 1 1 1 1 1 1 1 1 1 1 1 1 0 0 0 0
0 0 0 0 0 0 0 0 0 0 1 1 1 2 2 2 2 2 3 3 3 2 2 2 2 1 1 2 2 2 2 1 1 1 1 1 1 1 1 1 0 0 0
0 0 0 0 0 0 0 0 0 0 1 1 1 1 2 2 2 2 2 3 3 3 2 2 2 2 2 2 2 2 2 1 2 2 1 1 1 1 1 1 1 1 0
0 0 0 0 0 0 0 0 0 0 1 1 1 1 2 2 2 2 2 2 3 3 3 2 2 2 2 2 2 2 2 1 1 2 2 2 2 1 1 1 1 1 1
0 0 0 0 0 0 0 0 0 0 0 1 1 1 2 2 2 2 2 2 3 3 3 2 2 2 2 2 2 2 2 1 1 1 2 2 2 2 1 1 1 1 1
0 0 0 0 0 0 0 0 0 0 0 0 1 1 2 1 1 1 2 2 2 3 2 2 2 2 3 3 2 2 2 1 1 1 1 2 2 2 2 2 1 1 1
0 0 0 0 0 0 0 0 0 0 0 0 0 1 1 1 1 1 1 2 2 2 2 2 2 2 3 3 2 2 2 1 1 1 1 2 2 2 2 2 1 1 1
0 0 0 0 0 0 0 0 0 0 0 0 0 1 1 1 1 1 1 2 2 2 2 2 2 2 2 2 2 2 2 2 2 1 1 1 2 2 2 1 1 1 1
0 0 0 0 0 0 0 0 0 0 0 0 0 0 1 1 1 1 2 2 2 2 1 1 1 2 2 2 2 2 2 2 2 1 1 1 1 1 1 1 1 1 1
0 0 0 0 0 0 0 0 0 0 0 0 0 0 1 1 1 1 1 1 1 1 1 1 1 1 1 1 1 1 1 1 1 1 1 1 1 1 1 1 1 1 1
0 0 0 0 0 0 0 0 0 0 0 0 0 0 0 0 1 1 1 1 1 1 1 1 1 1 1 1 1 1 1 1 1 1 1 1 1 1 0 0 1 0 0
0 0 0 0 0 0 0 0 0 0 0 0 0 0 0 0 0 0 0 0 0 0 0 0 0 0 0 0 1 1 1 1 0 0 0 0 0 0 0 0 0 0 0
0 0 0 0 0 0 0 0 0 0 0 0 0 0 0 0 0 0 0 0 0 0 0 0 0 0 0 0 0 0 1 1 0 0 0 0 0 0 0 0 0 0 0
0 0 0 0 0 0 0 0 0 0 0 0 0 0 0 0 0 0 0 0 0 0 0 0 0 0 0 0 0 0 0 0 0 0 0 0 0 0 0 0 0 0 0
0 0 0 0 0 0 0 0 0 0 0 0 0 0 0 0 0 0 0 0 0 0 0 0 0 0 0 0 0 0 0 0 0 0 0 0 0 0 0 0 0 0 0
0 0 0 0 0 0 0 0 0 0 0 0 0 0 0 0 0 0 0 0 0 0 0 0 0 0 0 0 0 0 0 0 0 0 0 0 0 0 0 0 0 0 0
0 0 0 0 0 0 0 0 0 0 0 0 0 0 0 0 0 0 0 0 0 0 0 0 0 0 0 0 0 0 0 0 0 0 0 0 0 0 0 0 0 0 0
0 0 0 0 0 0 0 0 0 0 0 0 0 0 0 0 0 0 0 0 0 0 0 0 0 0 0 0 0 0 0 0 0 0 0 0 0 0 0 0 0 0 0
0 0 0 0 0 0 0 0 0 0 0 0 0 0 0 0 0 0 0 0 0 0 0 0 0 0 0 0 0 0 0 0 0 0 0 0 0 0 0 0 0 0 0
0 0 0 0 0 0 0 0 0 0 0 0 0 0 0 0 0 0 0 0 0 0 0 0 0 0 0 0 0 0 0 0 0 0 0 0 0 0 0 0 0 0 0
0 0 0 0 0 0 0 0 0 0 0 0 0 0 0 0 0 0 0 0 0 0 0 0 0 0 0 0 0 0 0 0 0 0 0 0 0 0 0 0 0 0 0
0 0 0 0 0 0 0 0 0 0 0 0 0 0 0 0 0 0 0 0 0 0 0 0 0 0 0 0 0 0 0 0 0 0 0 0 0 0 0 0 0 0 0
0 0 0 0 0 0 0 0 0 0 0 0 0 0 0 0 0 0 0 0 0 0 0 0 0 0 0 0 0 0 0 0 0 0 0 0 0 0 0 0 0 0 0
0 0 0 0 0 0 0 0 0 0 0 0 0 0 0 0 0 0 0 0 0 0 0 0 0 0 0 0 0 0 0 0 0 0 0 0 0 0 0 0 0 0 0
Wind_Speed
13 12 12 12 11 10 10 10 9 8 6 5 5 4 4 4 4 4 6 7 8 9 9 8 9 8 8 9 9 8 9 7 7 6 6 6 8 7 5 6 5 6 5
15 14 14 13 12 12 11 11 10 9 8 5 5 5 5 5 4 4 6 8 9 9 8 9 7 8 8 9 9 8 7 7 7 7 5 6 7 6 7 7 6 7 6
15 15 15 14 13 12 12 10 10 10 8 8 6 5 5 4 4 5 5 7 9 10 9 9 8 8 8 8 9 9 10 8 8 8 6 6 6 5 6 8 8 7 5
14 14 15 15 14 13 12 12 11 9 8 7 6 6 5 5 5 5 5 6 7 9 9 10 10 10 9 9 10 10 9 8 7 7 7 7 4 4 4 5 6 6 7
14 14 15 15 14 13 12 11 10 9 8 7 6 6 6 5 5 5 6 6 6 8 9 9 10 10 8 10 10 9 10 8 8 6 6 7 4 8 5 4 4 5 5
14 13 14 13 13 12 11 10 10 9 8 7 6 5 6 6 6 5 5 4 3 4 7 8 9 9 8 9 9 9 10 8 8 6 5 5 5 6 6 6 5 4 3
14 14 14 14 13 13 12 11 11 10 9 7 6 6 6 5 5 4 3 3 2 3 4 5 7 7 8 8 8 8 9 9 9 8 6 6 5 4 4 5 4 4 3
13 13 13 12 12 12 12 11 11 10 9 8 7 6 5 4 4 4 2 2 1 1 2 3 4 6 7 7 7 7 9 8 8 9 8 5 4 4 4 4 3 4 4
13 13 12 12 12 12 12 11 10 9 10 9 8 7 7 6 6 5 4 3 2 1 0 1 2 3 4 6 7 6 7 7 8 7 7 5 4 4 4 3 4 4 4
12 12 11 11 11 11 10 11 11 10 10 10 9 6 7 7 6 5 6 5 5 4 3 2 1 2 2 3 5 5 6 7 6 6 7 6 4 4 3 4 4 4 3
11 11 10 10 10 10 10 11 11 11 10 10 9 8 8 7 7 7 7 6 6 6 5 5 4 3 2 2 2 3 5 6 6 6 7 6 5 4 4 4 4 4 3
10 10 9 9 10 10 11 11 10 10 10 10 9 9 8 8 8 8 8 7 7 7 7 6 6 5 4 3 3 2 3 4 5 6 6 6 5 5 4 4 4 4 4
9 9 9 9 9 10 10 10 10 10 10 9 10 10 10 10 10 10 9 9 8 8 8 8 7 6 5 4 3 3 3 3 4 4 5 5 5 5 4 5 4 4 4
8 9 9 8 8 8 9 10 10 10 9 9 10 10 11 10 10 10 9 9 9 9 8 8 7 7 6 5 4 3 2 3 3 3 4 4 5 5 5 5 5 5 4
9 8 8 8 8 8 8 9 9 9 9 9 10 10 9 10 10 10 10 10 10 9 9 9 9 8 7 7 5 3 3 3 3 3 3 2 2 2 2 3 5 5 4
8 8 7 7 7 7 8 9 9 9 9 9 10 9 9 9 10 10 10 10 10 10 9 9 9 9 7 9 8 5 3 3 4 3 3 3 3 4 4 4 4 2 3
7 7 7 6 6 6 7 7 8 8 8 9 9 9 9 9 9 9 10 9 9 9 9 9 9 9 9 10 8 6 3 4 4 3 2 3 4 4 6 8 9 8 7
6 6 6 5 4 5 5 5 6 7 8 9 9 9 9 9 9 9 9 9 8 8 8 8 8 7 10 12 9 5 4 5 4 4 3 3 4 5 6 8 8 8 7
5 5 5 4 4 4 4 5 6 7 8 8 8 8 9 8 9 9 9 8 8 7 7 7 8 8 9 12 10 6 4 4 5 5 4 3 4 5 2 7 9 9 8
4 4 3 3 3 3 3 3 5 6 7 7 7 8 8 8 8 9 8 7 6 6 6 7 7 8 8 12 11 7 3 4 5 4 5 6 5 4 1 5 8 9 8
2 3 2 2 3 3 2 3 4 6 6 5 6 6 7 7 8 7 7 7 6 6 7 7 7 8 9 10 12 10 4 4 4 4 4 4 5 4 3 1 5 7 8
1 2 2 2 2 2 2 2 4 4 4 4 4 5 6 6 6 7 7 7 7 6 7 7 7 6 7 9 10 11 9 5 5 4 4 5 6 5 3 4 9 7 5
0 1 1 1 1 1 1 2 3 3 2 3 3 4 5 5 6 6 7 6 6 6 6 6 6 6 6 6 8 9 10 8 6 6 9 8 7 7 7 10 7 5 4
1 1 1 0 2 2 1 1 3 3 3 2 2 2 3 4 5 4 5 5 6 6 6 6 6 6 6 7 6 4 5 6 7 7 8 9 9 8 8 7 4 3 4
3 2 1 0 1 1 2 2 3 4 3 2 2 1 2 2 3 3 4 5 6 6 6 6 5 6 6 8 9 6 5 4 4 4 5 5 5 5 5 5 5 5 5
4 4 3 2 2 2 2 3 3 4 3 2 1 1 1 1 1 1 2 2 2 4 6 8 7 5 7 7 8 9 9 7 3 4 5 5 5 5 5 5 5 5 4
Wind_Direction
354 355 350 347 344 342 338 332 327 324 322 316 311 305 288 275 262 246 247 251 249 247 241 234 228 220 218 215 212 210 210 217 216 219 215 215 222 226 201 223 222 215 198
350 353 351 349 344 341 337 330 326 324 322 313 301 287 286 279 267 255 246 242 243 242 238 235 229 223 220 219 216 213 214 212 210 216 216 219 213 220 224 218 228 233 200
348 348 347 345 342 341 335 328 323 318 316 313 302 297 288 272 260 251 247 244 241 237 233 231 230 227 220 217 215 210 212 212 212 218 214 219 221 202 208 218 220 229 227
350 348 345 344 343 341 336 329 324 318 316 312 303 299 290 286 281 271 259 253 243 239 233 230 229 225 222 220 216 213 214 213 212 216 230 243 241 217 200 204 219 221 226
351 349 349 346 344 343 339 332 329 325 323 317 309 299 294 291 286 277 266 259 244 233 229 226 227 225 221 223 221 215 214 213 214 208 207 224 233 241 237 220 206 203 214
354 352 349 348 348 348 346 344 337 335 334 327 320 311 309 309 302 287 270 257 246 235 228 222 222 221 219 218 216 212 212 214 218 213 209 206 211 223 227 233 229 223 210
357 355 353 351 350 350 351 349 346 344 344 339 337 333 324 318 315 305 280 262 245 239 238 226 220 217 217 214 210 207 209 210 211 210 213 218 222 219 220 227 227 222 218
357 356 354 353 352 351 352 354 351 351 350 348 348 346 342 334 334 336 334 327 295 258 245 230 226 220 214 210 207 208 208 205 206 210 208 209 210 207 214 221 213 216 213
358 358 357 358 358 358 359 355 354 0 359 358 357 358 358 1 357 354 3 1 355 347 301 189 188 199 203 202 198 204 203 202 205 202 202 201 194 197 208 216 215 213 215
356 358 1 1 2 2 3 5 11 10 6 6 6 7 5 8 9 12 20 25 23 22 28 49 94 130 156 188 198 195 195 194 194 193 192 188 187 192 196 205 204 210 216
352 354 358 358 1 5 10 12 13 14 14 12 11 16 18 20 21 24 23 25 31 33 39 44 54 75 91 126 164 175 180 186 187 187 187 190 187 185 185 190 194 198 204
352 357 358 1 5 11 13 16 16 16 16 14 16 22 25 27 30 31 26 28 34 36 38 44 50 57 65 77 100 132 164 179 180 176 175 175 172 171 174 178 183 183 192
354 2 5 8 11 13 14 17 18 17 19 19 21 26 30 30 32 33 31 30 35 39 41 44 44 46 51 61 79 97 115 139 157 166 168 168 166 167 170 175 175 177 177
359 7 8 14 14 13 16 18 19 19 22 25 27 29 30 30 34 36 36 36 38 40 39 42 41 40 41 42 60 87 98 107 121 137 145 153 161 170 170 172 171 167 162
3 6 8 12 15 17 19 22 21 20 22 28 31 30 30 32 34 35 36 38 37 39 37 40 38 34 31 30 27 56 86 96 106 112 119 123 119 124 166 172 165 162 164
1 3 9 13 14 17 18 19 19 22 25 30 31 29 31 33 31 32 34 34 35 36 37 36 35 34 30 25 30 27 80 89 91 95 108 128 144 128 124 93 82 98 155
355 359 6 12 15 19 17 20 18 21 29 33 33 30 31 32 29 31 33 31 34 34 34 32 30 31 30 29 37 33 59 79 79 85 103 122 132 149 136 129 125 94 59
350 356 0 9 13 25 26 25 25 29 35 36 34 31 29 31 30 31 30 27 30 32 29 27 25 27 29 28 32 24 71 82 83 85 96 124 137 132 143 142 126 112 94
335 339 344 349 0 20 15 19 34 40 40 35 32 31 30 30 29 29 28 25 26 29 29 29 24 23 29 27 25 15 76 87 85 82 77 86 108 90 132 139 126 114 99
332 337 337 341 8 24 8 15 36 43 44 35 32 33 32 30 28 26 24 24 26 25 28 36 32 30 29 28 24 12 74 85 85 81 81 69 79 83 353 150 138 130 123
333 327 329 2 15 9 352 18 42 51 50 43 39 36 35 36 30 24 24 24 27 27 29 38 39 38 33 30 31 23 46 80 87 77 71 73 78 81 23 44 122 124 133
347 337 337 26 30 4 343 52 64 70 71 63 54 46 39 35 33 32 28 27 24 30 33 35 38 35 39 34 34 39 40 37 85 81 76 79 83 89 70 82 102 115 136
259 348 341 20 81 74 7 53 100 125 122 96 71 57 55 47 37 33 31 28 24 25 28 28 27 30 32 39 46 53 54 45 69 74 72 79 90 106 95 92 110 148 137
184 234 250 181 94 81 80 79 132 166 171 131 96 73 59 54 49 36 30 30 22 20 22 22 21 24 34 24 18 47 76 82 85 91 92 84 74 84 95 113 116 103 90
188 208 224 142 123 128 120 127 164 184 186 159 142 105 69 52 42 52 35 24 43 24 7 11 16 17 24 19 10 15 42 56 75 99 103 100 99 94 94 93 91 101 113
192 196 194 204 189 162 140 142 181 206 215 176 154 133 115 75 22 30 105 119 48 55 37 26 12 47 39 26 38 46 50 52 54 98 95 91 90 93 98 104 104 100 100